World > North America > United States > Oregon

Lebanon, Oregon Regional Weather

Lat: 44.53N, Lon: 122.9W
Wx Zone: ORZ008Web Search

Helpful Tip: Type the letters wx in the search engine next time you need to find us.

Feedback

Lebanon, OR Regional Weather

Expires:202008112000;;295631
ASUS46 KPQR 111910
RWROR 

OREGON REGIONAL WEATHER ROUNDUP
NATIONAL WEATHER SERVICE PORTLAND OR
1200 PM PDT TUE AUG 11 2020

NOTE: "FAIR" INDICATES FEW OR NO CLOUDS BELOW 12,000 FEET WITH
NO SIGNIFICANT WEATHER AND/OR OBSTRUCTIONS TO VISIBILITY.


ORZ001>013-112000-
NORTHWEST OREGON

  
CITY           SKY/WX    TMP DP  RH WIND       PRES   REMARKS
ASTORIA        CLOUDY    62  52  69 W9        30.02S                  
TILLAMOOK      FAIR      64  52  63 NW8       30.04S                  
NEWPORT        FAIR      63  50  63 N16       30.05S                  
FLORENCE       FAIR      64  51  62 NW14G21   30.01R                  
PORTLAND       FAIR      69  51  52 VRB5      30.00F                  
VANCOUVER WA   FAIR      69  50  50 W7        29.99F                  
SCAPPOOSE      FAIR      70  52  52 S7        29.98F                  
HILLSBORO      FAIR      70  43  37 VRB3      29.99F                  
AURORA         FAIR      72  47  40 VRB3      29.99F                  
MCMINNVILLE    FAIR      70  41  34 CALM      29.98F                  
SALEM          FAIR      71  42  35 NE6       29.98F                  
CORVALLIS      FAIR      74  39  28 CALM      29.99F                  
EUGENE         FAIR      76  39  26 NW5       29.98F                  
CRESWELL       SUNNY     75  39  27 VRB3      29.97F                  
$$


SKY/WX - Weather  TMP - Temperature  DP - Dew Point  RH - Relative Humidity
WIND - Wind Direction/Speed PRES - Barometric Pressure VSB - Visibility
WCI - Wind Chill Index E13G22 Wind - East Wind 13 mph/Gusts of 22 mph
Lebanon Weather Map
UTC Time: 8/11/2020, 19:22
Your Time: